Theta_e
288 288 285 285 284 286 286 288 283 288 287 292 293 292 293 293 290 290 288 286 285 285 285 285 285 286 287 287 286 285 286 285 285 284 284 283 281 280 280 279 279 279 279 278
285 288 288 286 286 287 287 289 289 289 289 295 294 292 290 293 295 292 289 289 288 286 285 285 286 286 286 286 285 285 285 284 285 283 283 282 281 280 280 279 279 279 278 278
284 287 285 282 286 288 287 289 289 286 291 295 294 292 295 294 292 291 292 292 290 288 287 287 286 287 286 286 285 284 283 282 282 283 282 281 280 280 279 279 279 278 278 278
285 284 278 288 293 293 291 291 292 292 293 295 296 296 295 297 294 292 293 292 291 290 289 288 287 286 286 285 283 283 283 282 282 282 282 281 280 280 279 279 278 278 278 278
283 284 286 286 287 287 288 289 295 293 294 296 297 288 293 294 294 296 294 293 294 292 290 287 286 286 284 282 282 283 282 282 282 283 282 281 280 279 279 279 278 278 279 278
283 281 278 285 284 289 292 286 293 294 295 294 292 287 293 291 289 291 290 289 289 289 286 284 283 283 282 281 281 281 282 282 282 283 282 281 281 280 280 279 279 278 278 279
284 283 285 284 282 287 284 285 281 284 291 290 288 294 289 286 286 286 286 286 285 284 284 283 282 282 281 280 280 281 281 281 282 282 282 282 281 280 279 279 279 278 278 278
284 282 281 284 283 285 287 283 283 283 285 286 287 287 286 284 284 284 283 282 282 281 280 280 280 281 279 279 279 279 280 280 281 282 282 282 281 280 280 280 279 278 278 278
286 285 289 286 285 287 286 287 285 285 286 285 284 284 283 283 282 281 281 282 280 279 278 278 277 279 278 277 279 279 280 281 282 282 282 282 282 281 280 281 280 279 278 278
282 285 287 286 285 283 283 284 283 284 284 283 283 283 282 282 282 281 277 277 277 278 277 275 276 278 279 280 283 283 282 282 282 282 282 283 283 282 283 281 280 280 278 278
282 284 285 285 283 283 284 282 282 282 283 283 282 282 282 280 278 277 276 275 276 278 276 274 274 274 275 277 280 280 279 278 280 280 281 279 277 279 279 275 281 279 278 277
281 285 285 285 283 284 283 282 282 281 281 281 282 282 281 278 278 277 277 276 277 276 274 272 272 271 271 273 276 276 274 274 274 274 273 273 273 271 278 278 280 280 279 274
283 283 282 283 283 283 282 281 281 281 281 280 279 279 279 277 277 277 276 276 275 273 271 270 268 266 265 269 273 272 272 270 270 271 271 270 270 271 271 276 280 280 279 277
281 283 284 282 284 284 285 284 282 280 280 280 279 278 277 275 274 273 272 272 272 270 268 266 265 263 262 266 269 268 268 268 268 267 267 266 268 268 269 271 271 267 277 278
275 278 280 280 279 279 279 280 280 277 276 275 276 276 276 273 271 269 269 268 267 266 265 265 263 260 261 264 266 265 266 265 264 264 263 264 264 264 264 264 264 260 262 266
271 273 275 277 276 275 276 276 275 274 273 272 272 271 269 267 265 264 263 266 268 263 262 262 260 258 258 262 261 261 262 263 261 261 260 260 261 260 259 259 259 259 258 256
268 270 274 275 274 272 271 272 273 272 271 269 268 268 266 264 263 260 259 258 258 256 256 256 254 253 255 257 258 256 257 257 258 258 257 256 256 258 258 257 257 254 253 256
265 267 267 269 269 268 265 265 266 266 265 266 266 266 264 262 259 257 256 257 257 256 254 255 254 254 255 255 255 255 255 254 255 253 255 255 254 255 254 255 253 254 255 256
259 261 261 262 262 262 260 260 259 260 260 261 260 257 257 256 255 253 253 255 255 255 251 250 263 256 256 258 254 255 255 255 254 252 253 253 252 250 251 252 251 250 251 253
257 258 258 259 257 258 257 257 256 255 254 255 255 254 251 249 248 250 251 249 246 248 245 247 251 252 252 253 255 252 253 253 253 250 250 250 250 248 250 250 250 249 248 248
256 257 257 256 255 255 255 255 255 254 252 253 254 252 250 245 246 247 252 253 250 248 249 251 252 252 251 252 252 250 250 251 251 249 248 248 248 248 249 247 248 249 248 249
256 256 255 255 254 253 253 253 253 253 253 252 251 251 252 251 252 251 247 251 249 252 250 250 250 253 252 254 250 249 249 249 248 247 247 246 247 248 248 248 249 249 249 248
253 254 254 253 252 252 252 252 251 252 252 252 252 252 252 251 251 254 252 251 248 251 249 250 255 257 255 250 248 248 248 249 249 249 248 247 248 247 247 248 248 248 247 248
253 253 252 254 254 253 251 251 252 252 252 251 251 250 252 253 253 251 252 253 253 252 251 253 258 261 254 250 249 248 248 247 248 246 247 250 246 246 246 247 248 248 248 248
252 252 253 253 252 251 251 251 252 252 252 251 250 250 250 251 253 249 249 250 254 251 251 253 258 257 247 245 246 247 247 246 246 244 246 246 247 247 247 247 248 249 248 249
252 251 251 250 251 252 252 253 251 251 253 252 250 249 249 249 251 251 250 250 249 251 249 249 247 247 247 247 246 247 249 249 250 250 249 249 248 248 248 249 250 251 251 250
253 253 253 252 251 252 252 253 252 250 249 249 248 247 247 246 247 249 249 249 249 249 247 246 248 249 247 247 248 250 250 250 251 251 250 250 250 250 251 251 251 250 250 250
Wind_Speed
20 10 4 7 7 14 21 28 11 35 20 29 17 10 10 9 4 8 9 9 9 10 11 9 10 10 11 12 12 12 13 14 14 13 13 13 14 13 13 13 12 11 10 8
18 17 17 13 8 18 22 23 25 31 30 12 7 7 5 11 17 11 10 11 11 10 9 13 15 14 13 14 13 13 13 12 10 11 12 12 12 12 12 11 11 11 11 10
18 9 8 10 32 23 18 19 21 24 37 15 15 10 16 14 10 10 11 13 12 13 14 13 16 14 17 14 12 14 13 11 12 13 14 14 13 13 13 14 13 11 10 10
12 6 14 18 8 24 26 24 21 25 34 28 20 15 11 19 11 12 13 10 9 11 13 14 11 13 11 12 14 14 14 13 13 14 14 13 14 14 13 12 13 12 11 10
10 15 8 10 8 10 13 25 24 29 31 32 24 2 20 8 11 16 11 10 11 8 7 7 12 11 12 12 13 13 14 13 14 14 14 14 14 13 11 11 10 10 9 9
5 6 8 9 2 4 8 15 9 17 26 28 4 9 22 3 2 6 6 5 6 5 4 7 7 10 12 12 13 13 12 12 12 13 13 13 12 12 9 9 9 7 7 8
14 13 5 6 4 3 8 9 3 1 10 8 7 10 2 4 3 4 3 6 3 3 4 6 8 10 9 9 11 8 9 10 10 10 11 11 10 8 9 9 8 7 7 6
6 7 8 7 3 10 6 3 4 3 3 4 5 6 5 4 4 5 3 3 4 6 6 5 6 9 8 7 6 8 9 9 10 10 8 9 11 9 9 9 8 8 7 6
10 6 3 8 3 3 5 8 5 4 5 5 4 4 2 2 0 2 2 4 4 6 7 6 6 7 8 5 10 10 11 10 10 11 10 11 11 11 8 9 8 7 7 8
2 5 7 5 3 2 2 3 1 2 3 3 2 2 2 2 3 3 2 2 2 8 7 6 6 7 7 7 9 11 11 10 10 10 10 9 8 8 8 8 7 7 7 7
4 7 6 7 5 2 5 3 3 2 2 3 3 3 2 2 0 1 2 2 3 7 7 6 7 7 6 5 7 8 8 7 7 6 7 6 4 4 5 2 7 6 6 6
5 4 1 4 6 4 5 4 4 2 1 2 3 2 3 3 3 2 5 3 8 8 10 8 9 9 7 5 5 8 7 5 5 5 4 5 6 4 4 5 8 4 6 6
4 1 2 5 6 3 4 3 4 5 3 6 5 2 3 3 3 5 7 8 8 9 9 9 9 9 7 6 5 5 7 6 4 5 5 6 4 6 6 4 9 8 8 7
1 2 4 4 5 2 5 6 4 3 3 5 3 4 6 6 6 9 8 7 9 10 10 8 9 9 7 6 6 7 7 7 4 4 4 4 5 4 5 7 6 2 5 7
2 4 4 4 4 5 4 2 3 5 4 5 4 5 6 9 9 8 7 8 10 11 9 8 9 9 8 6 7 7 6 4 4 4 4 4 4 4 4 4 5 4 2 8
4 3 2 1 1 2 3 4 6 4 6 4 7 9 10 11 10 9 9 7 6 9 7 8 9 7 7 6 6 6 6 8 5 4 4 4 4 4 4 4 4 3 3 2
2 1 1 2 1 3 4 4 6 5 6 8 7 7 9 11 10 10 10 10 10 10 9 8 5 5 6 6 7 4 4 5 6 5 4 3 3 4 3 4 4 2 2 0
5 4 4 2 4 4 5 6 6 6 5 5 7 8 9 9 9 8 7 6 8 11 10 7 5 6 7 7 6 4 5 4 5 5 3 4 4 3 3 4 4 4 2 2
6 6 6 7 8 6 5 5 5 5 6 6 10 11 9 8 6 5 4 7 7 8 7 7 8 7 7 7 6 4 4 5 5 4 4 5 4 3 3 3 2 2 2 2
5 5 6 8 9 6 7 6 6 7 6 8 9 10 10 7 4 7 8 9 2 0 3 3 4 7 7 7 7 4 4 5 5 4 3 3 3 3 3 3 3 2 1 1
5 6 7 8 9 8 8 5 6 8 7 8 11 9 8 3 4 2 5 7 5 3 4 7 6 4 4 4 4 4 4 4 4 3 3 3 3 2 2 2 2 2 3 2
4 7 8 8 9 11 8 9 9 8 10 10 8 7 9 8 8 10 5 6 2 5 4 4 2 3 3 5 3 4 3 3 3 3 2 2 2 2 3 3 3 3 4 4
6 7 9 8 9 9 10 11 9 9 12 10 9 9 9 6 3 4 6 5 3 3 3 2 2 3 4 3 3 3 2 2 1 1 2 2 3 3 3 4 4 3 3 4
8 8 8 6 8 11 13 7 8 10 10 10 10 7 5 5 6 4 3 3 4 5 2 2 5 8 5 2 2 1 1 1 2 3 3 3 3 3 3 3 4 4 4 5
7 7 8 8 10 7 7 4 7 8 9 8 7 6 6 4 4 1 3 3 5 3 3 6 8 7 3 2 2 2 3 3 3 3 3 3 4 4 5 4 5 5 5 5
8 7 6 8 5 4 4 4 6 4 4 6 6 5 5 4 4 3 3 4 3 4 3 4 3 3 3 3 3 3 3 4 4 4 5 5 5 5 5 6 6 6 6 6
7 7 5 6 6 6 5 5 6 5 4 4 4 3 4 4 4 4 5 4 4 4 3 3 3 3 3 3 3 4 4 4 6 5 5 5 5 6 7 7 6 6 6 6
Wind_Direction
244 246 168 200 203 199 209 229 199 251 245 254 245 252 264 261 258 229 231 225 217 212 207 202 197 193 194 193 185 177 181 186 190 174 175 170 170 170 167 167 168 164 159 159
251 240 240 243 211 220 221 232 236 256 260 245 221 229 234 240 244 242 225 229 226 216 197 203 200 200 195 195 187 177 186 189 176 172 165 168 165 165 163 165 161 156 163 166
248 222 181 232 229 223 220 222 222 240 247 249 260 223 245 255 234 230 240 234 221 212 213 208 206 191 199 189 172 180 181 172 172 170 171 170 165 165 171 169 159 168 168 167
236 146 220 234 187 215 222 232 225 247 256 256 251 261 254 249 251 230 236 237 228 220 217 214 195 192 177 169 175 179 182 178 172 171 170 167 166 172 171 169 169 169 171 174
220 229 264 297 233 162 178 245 229 231 252 261 260 3 267 240 213 242 240 230 236 236 222 173 183 176 163 164 171 178 186 181 174 172 169 169 175 170 162 160 166 169 167 166
191 210 218 231 251 213 121 249 238 212 242 252 208 238 264 52 352 289 293 276 266 238 184 159 163 151 154 165 170 184 177 173 170 169 170 171 167 162 154 155 157 153 155 173
244 243 244 234 235 181 159 235 296 264 249 282 190 229 258 334 306 320 293 316 350 129 162 150 137 142 152 155 178 157 145 153 159 154 150 151 143 139 140 144 144 159 168 170
216 252 248 165 90 165 204 173 185 244 239 249 236 284 298 312 307 328 339 31 73 100 97 106 120 125 129 143 128 121 124 130 135 136 132 136 139 140 147 152 159 170 176 197
193 215 253 204 228 218 173 177 209 201 214 219 238 217 237 233 12 344 27 82 71 106 97 72 80 109 118 139 129 128 127 133 134 133 135 147 154 159 162 171 181 183 189 205
33 251 254 244 229 240 213 232 173 242 279 237 251 237 224 170 166 117 49 68 95 104 98 88 92 103 120 132 136 135 134 136 140 147 151 156 162 166 174 182 188 191 193 210
291 288 290 262 231 247 224 222 225 233 308 274 153 247 243 206 241 69 68 45 57 97 93 74 68 68 58 86 114 113 114 122 131 133 143 132 105 151 167 168 190 192 205 200
239 233 279 291 330 308 205 222 238 227 126 50 23 53 93 59 18 28 91 63 87 80 89 72 68 58 38 39 106 123 119 127 134 130 125 130 126 95 87 153 184 185 187 180
279 286 268 289 279 274 182 116 67 64 32 69 41 38 75 83 15 67 68 71 74 82 83 80 71 59 19 13 70 94 114 120 116 119 129 137 133 136 124 110 150 159 150 154
286 344 276 229 285 192 148 129 96 66 47 61 74 84 83 87 64 67 63 66 78 81 71 69 67 50 1 13 73 79 84 85 105 117 122 125 137 138 140 147 145 77 93 101
13 320 291 318 4 21 29 39 131 84 56 56 40 85 102 102 90 81 66 81 86 76 64 60 62 39 0 16 64 73 82 81 92 96 91 106 117 123 129 126 131 125 72 66
316 305 56 136 59 23 97 72 97 81 72 59 78 78 80 79 75 59 36 12 69 69 48 61 58 12 2 29 62 66 69 81 71 86 88 86 87 104 105 110 122 134 129 158
147 270 116 169 99 62 60 62 83 91 82 68 76 84 88 87 76 64 55 49 64 68 55 47 36 1 24 40 63 63 71 66 81 74 74 83 97 110 112 116 125 108 91 174
346 69 69 97 117 118 72 57 70 72 75 94 88 85 76 73 90 89 82 87 86 66 38 20 39 37 45 46 57 59 69 67 61 76 73 71 75 86 97 109 121 130 128 340
14 36 44 66 65 79 69 65 55 65 59 74 85 79 80 80 85 82 64 67 57 70 5 352 44 48 52 64 61 64 79 88 77 67 81 93 77 68 93 106 120 125 121 121
61 51 51 66 59 53 79 55 59 68 51 87 97 87 80 61 60 86 86 78 75 267 296 328 47 52 47 40 54 62 75 81 93 88 77 79 92 90 84 101 122 144 173 202
80 79 77 80 77 67 57 52 69 70 58 61 91 93 95 84 56 81 73 87 345 0 44 49 51 43 38 44 56 68 75 84 86 100 106 115 110 118 139 174 194 197 214 222
74 95 90 86 86 77 54 56 60 71 74 73 68 72 83 69 76 76 58 85 324 26 42 41 39 74 74 70 63 70 70 78 94 105 112 140 160 184 210 207 214 220 220 223
62 76 86 82 85 83 67 56 52 64 70 63 65 64 68 64 36 70 71 357 21 56 51 9 347 67 86 68 67 72 75 87 148 204 212 204 208 208 217 226 232 228 235 239
80 78 80 79 85 80 75 55 68 64 70 64 57 44 46 74 60 35 46 37 46 44 30 349 15 52 61 48 41 22 329 270 252 248 247 232 225 226 234 234 243 237 237 246
67 68 68 76 81 81 85 75 78 65 71 64 53 42 37 24 79 349 23 17 18 34 20 2 15 24 27 12 320 284 268 257 254 243 245 240 239 231 236 231 233 238 234 235
66 65 66 54 59 66 74 74 79 54 69 77 56 30 29 23 38 42 22 27 23 18 14 356 348 339 322 298 272 264 259 256 248 244 239 242 240 241 239 240 237 237 235 237
68 63 77 69 44 46 48 56 76 62 47 60 84 17 24 15 15 24 13 9 3 358 353 333 322 324 307 291 286 277 268 264 259 252 240 244 242 244 246 242 239 236 239 238